Location: Unspecified
(0.0000°N, 0.0000°E)
Time: 05:51:32
(UTC+00:00)

N. Korean satellite - Pass Details

Date: 14 October 2017
Orbit: 459 x 517 km, 97.2° (Epoch: 23 October)

Event Time Altitude Azimuth Distance (km) Brightness Sun altitude
Rises 18:28:22 0° 170° (S) 2,612 10.3 -10.5°
Reaches altitude 10° 18:30:29 10° 171° (S) 1,717 9.3 -11.0°
Maximum altitude 18:34:11 83° 257° (WSW) 506 6.7 -11.9°
Drops below altitude 10° 18:37:48 10° 347° (NNW) 1,677 9.3 -12.8°
Sets 18:39:50 0° 348° (NNW) 2,545 10.3 -13.3°
